Tracking 35280 objects as of 7-Sep-2026
HD Live streaming from Space Station
objects crossing your sky now

FALCON 9 DEB


FALCON 9 DEB is no longer on orbit


NORAD ID: 51763
Int'l Code: 2022-016BB
Launch date: February 21, 2022
Source: United States (US)
Launch site: AIR FORCE EASTERN TEST RANGE (AFETR)
Decay date: 2022-04-27

Note: This is SATELLITE DEBRIS
Your satellite tracking list
Your tracking list is empty




NASA's NSSDC Master Catalog

Two Line Element Set (TLE):
1 51763U 22016BB  22117.17554850  .14411887  12691-4  14609-3 0  9991
2 51763  53.2044 170.3244 0005464 301.8269  58.2252 16.50567464 10459
Source of the keplerian elements: AFSPC